Cloud_Cover
100 100 100 100 100 100 85 34 27 26 28 100 68 21 0 0 0 0 0 0 0 0 0 0 0 0 0 0 79 66 72 99 100 74 52 59 9 4 5 0 0 0 0 0 4
100 100 100 100 68 100 100 100 100 100 100 96 17 24 0 4 0 0 0 0 0 0 0 0 0 0 0 1 15 90 68 97 100 44 33 41 6 5 22 16 0 0 0 0 5
100 100 100 100 93 45 62 47 100 65 40 76 31 2 0 19 0 0 0 0 0 0 0 0 0 0 5 60 48 100 100 70 48 65 100 100 5 6 80 60 0 0 0 1 5
100 100 100 100 100 100 35 99 100 100 99 59 8 0 0 0 0 0 0 0 0 0 0 0 0 6 47 14 13 96 100 100 81 49 100 77 42 6 75 11 0 0 0 4 5
38 100 88 100 100 90 42 30 95 100 100 31 0 0 11 0 0 0 0 0 0 0 0 0 3 44 8 5 18 62 100 100 100 58 99 12 33 13 70 0 0 0 0 4 13
74 100 100 100 100 100 100 94 18 88 100 15 0 21 0 0 0 0 0 0 0 0 0 0 2 6 5 6 38 86 100 100 100 100 40 25 56 41 43 7 4 0 1 5 5
72 99 100 71 100 100 100 100 100 15 93 5 0 1 0 0 0 0 0 0 0 0 0 0 5 0 8 13 58 7 100 100 100 97 100 99 60 84 55 16 5 23 4 5 6
50 24 92 100 95 100 97 100 100 58 15 0 2 0 0 0 0 0 0 0 0 0 0 0 3 4 6 5 58 92 100 100 100 100 100 88 100 100 88 97 30 28 5 6 5
31 8 15 100 100 100 0 13 18 5 0 3 7 0 0 0 0 0 0 0 0 0 0 0 5 5 6 81 66 9 100 100 100 98 88 97 100 100 100 100 100 5 12 48 18
22 4 3 96 100 98 0 5 1 28 9 5 5 5 3 0 0 0 0 0 0 0 0 0 49 59 21 78 100 43 75 100 100 94 100 100 94 97 100 100 100 97 100 94 100
3 0 1 34 95 72 48 0 0 0 0 0 0 1 5 0 0 0 0 0 0 0 0 0 7 96 100 92 26 59 12 100 100 100 100 100 77 100 100 100 100 69 80 100 100
0 0 11 25 100 2 16 1 0 0 0 0 0 0 1 5 0 0 0 0 0 0 0 0 4 70 5 1 22 5 6 95 100 96 100 100 100 99 95 100 100 99 81 73 93
5 3 5 70 26 34 5 5 5 4 5 0 0 0 0 0 5 0 0 0 0 0 0 3 48 2 2 3 5 5 5 5 85 100 100 100 100 98 96 91 100 100 78 98 59
4 2 27 95 54 5 6 5 34 32 6 5 4 1 0 0 0 0 0 0 0 0 0 0 2 0 0 5 5 45 1 0 0 100 100 100 100 76 91 81 88 100 100 83 58
0 5 96 96 5 5 5 5 6 35 77 57 6 5 2 0 0 0 0 0 0 0 0 0 0 2 5 4 5 78 2 4 17 90 100 63 75 47 11 58 98 100 99 73 100
5 6 98 42 5 5 5 5 5 5 57 73 78 24 5 3 0 0 0 0 0 0 0 0 0 4 1 6 2 4 4 4 15 95 100 99 41 92 27 15 49 82 100 100 100
5 8 58 88 81 34 41 14 40 6 5 5 62 88 23 18 4 0 0 0 1 0 0 0 0 3 5 10 0 2 32 100 98 100 100 78 77 80 17 7 69 11 99 100 100
5 47 50 62 100 100 72 98 96 97 5 5 39 92 85 67 13 5 0 0 0 1 0 0 3 1 0 26 99 7 100 100 98 98 88 0 3 78 40 9 98 12 15 39 100
28 14 5 19 38 98 86 100 100 100 56 10 5 51 31 15 21 5 0 5 0 2 5 0 56 6 0 0 4 46 4 14 5 2 1 58 4 1 100 32 5 5 5 42 77
78 32 19 28 43 53 77 100 100 100 100 100 100 93 95 49 22 5 2 5 5 5 4 5 95 1 0 0 0 1 19 29 40 54 85 81 2 5 7 100 26 5 5 33 90
84 48 5 5 24 46 87 100 100 100 100 100 100 100 54 99 56 5 18 0 64 93 41 5 23 18 0 2 85 2 3 0 27 28 71 82 85 0 0 38 42 5 4 71 48
99 19 5 5 10 54 85 94 100 100 100 100 100 100 100 100 100 100 100 9 5 99 100 24 5 95 96 1 0 0 7 54 81 95 24 0 4 0 0 0 0 5 5 5 5
74 21 24 23 8 35 79 100 100 100 100 100 100 100 100 100 100 100 100 40 5 81 100 100 14 100 25 2 0 0 1 2 2 5 5 4 66 0 0 0 0 0 4 3 29
7 65 47 28 6 20 43 67 88 77 90 100 100 100 100 100 100 100 100 98 65 55 100 100 95 80 100 100 70 33 0 0 0 17 38 5 38 2 0 0 0 0 0 0 0
7 24 20 8 5 31 67 59 48 95 100 100 100 100 100 100 100 100 100 100 99 86 100 100 100 78 99 40 0 0 1 0 0 0 2 71 9 5 0 0 0 0 0 0 0
29 6 5 5 5 75 97 29 28 35 68 24 19 54 93 100 100 100 100 100 100 88 100 100 100 100 100 100 20 0 0 0 0 0 0 0 2 5 0 0 0 0 0 0 2
48 29 5 5 11 7 42 7 14 5 5 5 4 5 79 90 100 100 100 100 100 100 100 100 100 100 100 68 87 64 0 0 0 0 0 0 5 0 0 0 0 0 0 0 0